GFSSE_250_rhum_171.txt.gz
RH
49 41 55 57 41 32 33 29 36 68 93 100 100 100 100 100 98 98 99 88 90 88 78 77 75 72 62 60 61 58 56 56 58 58 52 46 46 43 41 41 38 43 45
54 51 50 50 75 66 44 35 36 40 37 48 85 96 96 89 80 74 70 64 63 52 40 32 34 38 41 45 43 38 32 29 28 28 29 24 30 30 30 26 43 38 34
75 76 72 63 52 77 80 59 60 77 76 66 59 89 85 76 48 37 34 37 32 22 25 24 22 19 18 17 16 17 15 14 14 13 12 13 13 13 12 13 21 22 17
92 94 80 60 38 74 100 97 100 91 74 89 91 97 86 72 42 28 29 23 22 25 28 24 22 21 26 19 16 14 15 14 13 12 11 11 12 10 11 15 12 18 43
53 58 46 43 56 61 90 100 91 84 72 98 100 90 87 68 40 40 29 28 25 23 25 26 25 26 22 19 18 17 17 16 14 13 13 11 11 13 11 11 12 15 25
50 47 44 78 95 100 100 100 100 100 100 100 94 92 79 63 53 51 44 34 26 29 33 38 32 26 24 22 22 19 19 16 15 13 12 12 12 13 13 14 29 37 44
54 53 56 100 99 100 100 100 100 100 96 90 95 96 100 81 49 33 34 32 33 35 34 29 28 28 26 28 32 27 21 19 16 15 13 14 16 20 18 19 18 22 53
57 70 91 100 100 100 100 100 100 100 100 100 100 100 99 73 51 43 41 36 36 30 24 24 24 25 37 38 35 35 32 28 21 18 18 21 21 19 20 23 20 37 53
95 87 78 93 100 100 100 100 100 100 100 99 88 76 67 56 53 47 40 23 19 18 17 17 20 26 31 50 56 40 52 40 28 26 20 26 62 49 29 28 38 57 60
83 91 98 100 100 100 100 98 99 100 98 92 82 66 51 38 25 23 21 22 22 24 21 18 17 20 36 61 64 68 78 47 33 23 42 40 58 69 100 48 76 80 75
94 100 97 96 99 74 67 76 75 60 58 48 38 35 24 21 22 20 24 28 26 38 30 26 21 16 24 47 87 94 88 63 40 26 29 57 60 65 86 86 84 92 93
97 84 90 79 61 54 49 46 49 47 28 29 26 29 31 26 24 23 23 28 35 31 25 30 40 22 21 34 64 85 87 77 46 33 25 32 57 89 77 88 100 90 100
41 36 31 33 33 31 33 35 41 37 37 28 25 30 34 35 28 29 27 26 25 29 32 33 52 41 28 37 46 77 64 63 60 40 35 29 52 74 68 91 100 100 96
35 36 35 32 32 33 32 35 34 34 32 27 39 44 40 38 34 32 29 26 25 32 34 29 55 65 50 47 70 79 69 67 72 55 52 44 32 72 88 76 88 92 100
32 36 33 35 37 40 40 42 48 46 44 67 77 61 35 26 25 27 29 32 36 37 33 33 32 77 73 60 60 67 99 80 79 76 67 50 50 37 80 90 88 84 98
45 37 31 35 36 45 76 90 86 90 94 98 80 58 49 36 32 35 57 51 43 39 34 39 37 45 69 73 76 68 76 100 92 84 90 75 62 59 35 99 100 78 76
37 38 41 46 55 70 81 58 80 80 72 79 76 49 44 39 55 53 54 60 45 44 40 37 50 38 39 59 95 89 70 67 100 100 100 100 100 50 49 36 100 100 95
48 43 41 43 44 42 50 53 58 51 59 48 48 33 32 40 47 46 48 42 38 44 46 41 44 58 58 60 85 96 100 89 80 100 98 100 100 77 50 46 40 79 100
53 45 46 43 39 41 40 42 45 56 62 52 37 34 44 52 48 45 36 38 42 51 55 45 53 48 72 92 84 100 100 100 78 90 100 100 100 100 82 54 43 44 54
68 61 59 55 53 45 43 58 71 80 58 63 57 53 52 54 49 33 40 47 48 52 56 48 63 68 84 92 96 90 91 94 100 72 65 82 96 98 99 93 58 50 48
62 60 59 59 62 54 57 75 79 78 74 69 57 47 54 44 33 45 52 62 66 60 63 61 49 48 59 53 70 93 97 74 85 100 100 48 48 46 59 72 92 73 40
68 66 49 51 52 61 62 61 59 55 51 44 37 41 41 45 52 58 62 73 73 78 87 76 94 86 64 59 60 44 56 73 76 70 94 95 89 64 72 48 51 71 86
56 59 52 46 44 45 47 48 46 47 39 45 55 51 51 51 54 58 59 61 71 84 95 91 82 82 88 96 88 88 58 46 40 53 86 98 93 83 97 100 83 60 52
48 43 41 43 35 36 39 41 38 30 35 37 38 54 52 50 60 53 51 71 90 95 88 80 82 90 100 95 96 100 91 78 58 59 55 63 64 65 56 84 100 100 82
84 75 78 69 57 53 50 50 55 52 44 48 47 44 48 55 62 56 58 60 66 68 72 66 61 54 47 44 50 64 93 100 100 100 100 100 100 100 98 63 61 100 100
100 100 100 97 86 71 70 62 55 66 67 59 64 60 63 61 52 58 64 63 67 63 40 27 22 21 19 19 20 20 23 36 87 73 100 100 100 88 99 100 69 60 80

GFSSE_250_rhum_174.txt.gz
RH
23 22 26 39 49 40 48 42 35 27 25 59 87 100 100 100 100 99 99 99 98 95 95 94 86 81 80 74 64 54 46 42 44 43 45 44 44 41 35 33 32 32 34
18 16 28 47 59 47 51 49 56 41 32 34 34 38 50 83 91 100 100 96 82 72 54 50 45 43 38 38 35 30 24 21 18 17 17 18 18 18 16 18 17 16 21
18 20 26 47 75 63 52 51 47 51 62 54 51 58 53 49 58 64 78 70 52 30 38 37 32 27 22 24 25 22 19 20 22 18 16 14 13 13 13 12 12 12 12
15 14 18 27 88 97 77 69 58 49 86 72 84 72 68 50 39 44 52 36 50 40 36 33 40 43 46 45 41 29 23 22 19 18 15 14 15 14 13 12 12 11 11
12 13 18 18 24 58 60 43 46 59 79 74 71 80 70 65 58 53 53 53 58 38 34 35 32 25 24 24 24 25 29 27 22 18 15 14 14 13 13 11 11 12 12
20 24 37 36 38 52 41 43 82 57 75 87 100 100 97 100 100 100 89 80 67 56 35 30 30 27 20 21 19 20 20 22 21 19 17 16 15 14 13 12 12 12 14
49 39 45 53 53 63 67 77 100 89 100 100 100 98 100 100 100 100 90 71 67 40 33 28 25 20 17 16 14 15 18 21 22 26 26 25 18 17 15 15 14 14 18
72 58 59 68 100 100 98 65 92 100 100 100 100 100 100 100 100 87 57 50 48 40 34 23 16 13 13 13 14 14 15 15 28 36 44 38 27 19 22 19 19 20 24
81 71 66 91 100 100 100 100 100 100 100 100 100 100 99 79 69 68 68 52 38 26 19 16 15 14 15 16 17 19 16 14 21 40 59 60 40 25 26 46 33 24 28
67 69 88 100 100 100 100 100 100 100 100 100 100 97 82 68 82 57 39 32 22 19 19 17 16 16 16 15 16 18 19 17 21 63 61 72 57 29 37 64 80 58 32
87 59 60 88 96 95 100 100 100 95 93 85 80 66 64 58 53 37 29 28 31 27 24 21 20 19 18 17 18 18 19 24 20 51 85 78 64 55 37 64 82 80 75
94 100 100 98 93 92 100 96 79 60 48 47 43 48 46 32 25 26 30 29 24 24 23 21 20 21 22 19 25 24 24 26 24 27 58 88 64 51 61 55 100 95 87
34 52 60 71 69 75 74 47 38 32 34 33 33 30 27 29 29 40 44 33 26 24 23 23 27 30 35 30 26 30 29 38 40 27 40 69 75 50 36 33 90 94 97
34 35 38 34 32 31 33 32 31 33 37 36 38 41 39 45 48 54 53 46 51 45 46 32 32 33 26 36 32 30 33 32 55 44 35 53 93 55 38 26 32 99 87
47 48 53 49 34 31 35 41 39 36 37 37 38 53 66 67 60 71 69 46 36 38 31 29 35 39 34 45 37 33 35 34 45 47 41 53 66 89 53 39 30 61 80
39 47 48 44 44 42 46 38 35 35 40 47 65 92 81 57 57 52 51 49 39 41 34 39 31 36 47 38 36 41 47 43 36 38 61 46 59 74 76 58 53 38 68
56 84 75 79 50 35 36 37 40 41 42 46 45 44 50 47 46 47 66 82 60 46 40 36 48 49 46 40 38 43 47 46 47 52 72 86 60 82 75 94 66 67 48
92 90 87 88 88 82 56 42 37 38 48 49 49 44 43 44 48 50 62 70 64 51 55 58 50 44 36 38 41 48 50 54 50 65 65 100 84 65 89 77 100 83 64
95 94 94 91 93 95 94 87 71 59 56 55 57 60 51 55 64 63 72 71 61 66 57 52 36 31 35 35 48 52 56 56 59 90 81 95 100 71 73 74 77 100 82
88 82 77 69 62 58 63 71 76 75 73 70 64 58 55 53 54 53 55 55 54 53 52 41 33 29 38 49 54 62 80 74 72 94 97 96 100 100 77 76 78 92 96
89 83 77 73 65 63 57 52 54 58 64 59 48 43 47 50 48 47 44 42 39 36 34 36 32 40 43 49 54 86 97 92 100 98 100 98 96 100 100 91 71 88 76
72 72 69 69 71 74 70 70 69 64 56 52 54 50 46 41 36 36 38 37 38 39 40 45 51 48 45 48 59 69 100 97 100 100 100 100 81 94 100 100 93 79 85
52 50 54 55 60 71 82 65 62 59 67 85 84 82 70 67 63 59 53 48 52 59 57 60 60 39 51 49 48 57 69 79 96 100 100 100 98 92 90 92 100 86 76
50 88 100 100 98 99 98 95 90 98 82 84 99 90 76 70 77 67 53 53 59 52 61 57 42 46 46 49 49 45 46 59 57 84 72 91 94 86 100 98 100 100 81
100 100 99 96 99 98 84 78 83 75 60 55 61 54 47 48 50 42 49 56 49 50 60 53 48 50 52 50 44 36 36 39 49 52 62 50 70 93 100 89 80 97 99
76 80 83 79 77 70 66 61 59 69 59 58 65 56 49 54 53 58 60 63 68 63 59 56 45 39 24 18 17 15 14 14 16 20 41 40 32 46 99 88 69 69 78

GFSSE_250_rhum_180.txt.gz
RH
78 51 60 58 52 66 56 41 36 30 27 25 30 45 42 38 35 31 25 32 68 99 100 98 97 100 97 100 100 96 78 64 58 50 47 45 41 35 30 28 27 24 23
51 46 55 66 59 54 51 40 28 21 18 18 25 53 50 40 49 55 46 38 32 49 84 92 100 100 100 100 97 83 77 66 51 45 38 34 28 34 37 33 38 28 23
84 64 55 59 56 63 39 25 24 22 19 23 25 52 64 56 55 51 54 59 60 46 46 53 65 82 99 98 89 84 72 47 34 26 22 22 20 22 30 26 19 16 13
100 100 94 70 46 35 32 23 21 19 17 19 49 46 79 66 53 60 59 50 52 93 76 71 67 52 51 44 53 64 48 34 33 29 25 21 23 24 25 31 24 22 16
86 86 74 38 19 16 18 21 18 14 14 18 20 30 49 90 84 66 57 47 91 95 91 82 73 63 57 65 62 53 49 56 47 37 29 20 17 14 12 11 11 12 11
88 48 36 15 14 14 14 17 19 15 15 30 22 20 35 61 64 56 48 75 96 94 100 100 90 79 77 62 66 48 39 39 37 32 24 15 12 10 10 10 10 10 12
36 36 16 16 17 22 28 38 20 19 25 34 44 38 50 54 61 72 80 97 100 100 100 97 83 78 68 54 49 41 40 34 25 20 16 13 12 13 20 27 23 19 31
20 23 17 19 27 51 54 96 100 88 96 97 81 81 68 76 88 100 100 100 100 100 98 79 65 64 53 50 42 38 33 28 24 18 14 13 14 17 17 17 20 18 28
35 30 23 22 44 32 87 78 83 100 100 100 100 100 100 100 100 100 100 100 92 87 75 82 88 75 60 50 47 37 32 25 19 16 15 14 15 14 26 21 35 35 36
42 34 25 22 23 21 32 78 92 89 99 100 99 100 74 61 64 71 85 70 61 82 100 88 67 65 61 54 49 39 23 20 19 18 16 15 14 15 20 43 42 20 22
44 38 32 22 24 24 34 81 99 100 77 53 78 95 100 100 100 100 86 96 100 97 81 63 65 54 44 33 27 24 25 27 22 20 19 20 19 18 16 17 17 30 52
49 47 40 29 26 26 38 49 78 100 100 99 92 96 100 100 100 100 95 77 64 55 48 36 30 30 33 31 30 33 33 36 36 23 22 27 28 25 26 23 23 21 19
52 52 45 36 29 32 52 83 82 61 76 90 90 100 100 100 100 100 84 72 49 30 28 33 35 37 40 42 45 46 40 37 36 34 33 36 35 36 34 37 42 34 27
51 55 69 71 53 49 46 39 54 78 81 83 79 86 87 91 98 90 56 32 34 37 42 44 42 38 35 38 47 57 65 58 51 47 39 46 50 55 58 54 60 62 45
89 94 98 99 97 98 96 75 53 48 46 40 42 43 42 42 61 44 33 34 34 37 45 43 41 40 40 43 49 48 59 60 44 50 47 54 62 81 86 67 69 58 53
100 100 100 96 94 100 99 87 68 59 53 51 45 43 48 58 64 52 46 40 39 42 47 46 42 44 47 48 50 50 52 55 61 59 61 58 60 72 61 57 55 54 48
88 98 100 100 100 100 100 100 100 99 98 87 74 65 67 70 78 82 88 82 64 49 44 41 42 51 56 52 53 60 60 64 72 80 76 67 77 70 62 64 56 48 42
100 100 100 100 98 98 96 97 100 100 100 100 100 100 100 100 100 100 100 93 92 94 97 96 90 88 87 82 76 74 73 65 66 64 57 61 60 58 57 54 44 44 43
100 100 100 100 100 100 100 100 99 100 97 93 89 78 71 68 66 65 68 65 61 56 55 56 60 63 65 66 69 68 67 63 60 56 54 52 52 49 49 46 44 39 34
100 100 100 100 100 99 93 89 87 80 82 86 87 85 81 67 63 65 62 58 62 57 58 68 66 64 64 57 54 58 56 55 55 52 49 48 49 50 50 49 48 46 43
97 83 73 74 74 68 65 69 72 78 79 77 76 89 76 78 73 65 52 59 63 72 75 65 66 56 60 58 52 48 40 42 39 35 31 29 29 29 34 39 40 36 34
49 60 71 64 62 56 55 56 58 63 66 73 73 61 51 54 54 55 54 60 70 69 70 63 58 54 47 44 37 35 32 30 28 28 26 26 24 26 27 32 32 32 32
84 90 78 81 90 91 78 92 100 100 100 100 93 80 81 71 71 74 60 53 48 42 42 35 33 28 28 26 27 29 26 36 48 38 40 39 36 33 38 35 37 41 42
100 100 100 100 100 100 97 100 100 100 91 60 66 75 83 85 84 78 58 41 38 46 47 37 31 30 27 26 28 38 42 41 44 42 38 39 40 37 40 44 43 44 47
100 100 100 100 100 100 100 94 90 96 99 100 99 100 97 84 78 77 62 50 43 38 34 33 32 45 61 53 51 49 47 48 48 46 42 38 36 29 24 24 27 36 43
98 100 100 100 100 100 100 100 100 99 94 83 66 53 38 38 36 32 32 36 35 35 49 59 62 65 61 55 53 50 46 47 50 47 26 18 13 14 15 15 15 15 17

GFSSE_250_rhum_183.txt.gz
RH
40 25 40 53 74 74 71 73 69 57 48 45 43 36 31 26 26 29 38 40 31 34 28 29 48 74 100 100 90 87 92 81 65 66 75 67 49 44 51 40 33 32 41
60 31 55 56 46 53 63 65 71 72 60 48 40 31 22 19 18 20 42 50 44 49 47 46 37 36 58 87 100 100 96 97 92 83 73 71 60 55 47 45 43 41 41
39 44 57 93 64 80 46 49 54 49 45 44 34 26 23 20 18 22 50 66 66 60 58 56 50 51 41 48 67 70 78 89 81 64 68 63 45 33 27 32 31 33 28
68 46 68 68 100 100 90 61 60 46 32 28 32 24 21 18 19 34 63 82 71 58 58 62 61 50 82 77 61 55 49 43 39 36 44 49 37 37 37 36 30 31 22
92 100 100 100 81 82 78 66 27 15 14 14 15 19 18 17 23 25 52 79 99 78 67 64 62 95 92 91 80 80 63 49 55 55 64 50 44 36 41 35 32 27 11
100 88 92 82 71 63 66 21 16 14 15 20 23 21 19 26 39 35 29 39 71 82 74 69 98 97 99 92 98 91 81 70 54 52 43 36 43 35 28 35 32 28 28
100 66 66 81 68 57 20 19 22 25 38 33 22 23 29 48 46 36 37 49 58 56 78 84 93 100 100 100 100 89 69 60 57 45 38 36 32 27 29 42 52 35 25
96 55 39 31 24 26 18 24 22 34 86 83 100 100 99 99 87 64 65 80 90 99 100 99 98 100 99 98 80 70 76 66 55 51 44 39 27 22 20 18 38 48 52
88 50 52 49 25 20 23 34 26 60 58 52 69 92 84 70 93 100 84 92 100 100 100 100 100 100 96 79 98 96 82 67 58 54 46 35 27 18 30 43 61 58 74
82 49 44 47 44 39 26 25 24 65 60 34 45 43 38 63 72 97 94 87 81 79 65 64 80 100 100 100 100 73 66 63 53 33 29 23 19 20 18 16 16 18 47
74 59 62 55 54 42 35 28 25 35 56 46 37 100 93 100 98 92 95 77 71 86 89 93 100 100 100 92 65 49 42 33 32 30 28 26 24 22 18 20 18 21 22
83 74 67 56 47 39 42 32 30 36 78 94 64 45 59 72 79 70 100 100 100 100 100 100 87 71 56 38 34 35 35 33 28 29 31 38 39 33 23 26 27 27 28
100 81 69 38 36 49 43 42 39 31 64 98 100 100 100 100 100 100 100 100 100 100 100 99 86 71 42 30 33 35 38 40 38 34 32 31 34 40 36 33 36 42 37
100 100 78 49 43 48 46 48 56 50 49 79 99 100 100 100 100 100 100 100 100 100 87 93 71 46 31 32 34 42 46 40 38 40 35 35 42 44 44 43 38 39 48
100 100 93 93 85 84 98 96 93 80 75 75 78 71 74 79 64 55 76 87 87 58 63 82 63 38 36 38 40 38 38 42 39 35 41 44 42 47 50 54 55 57 53
93 89 100 100 100 100 100 100 100 100 100 100 100 96 81 67 62 57 51 45 40 38 39 40 42 45 46 47 43 44 44 45 45 43 47 59 72 71 76 83 83 69 63
70 78 96 91 100 100 100 100 100 100 100 100 97 81 88 93 90 84 78 72 62 59 65 73 91 100 100 99 91 89 96 98 98 99 97 98 87 77 68 58 57 58 57
100 88 72 63 63 64 71 59 47 62 66 74 69 96 96 96 100 100 100 96 94 93 92 95 97 97 94 90 82 78 77 67 66 65 60 58 61 69 67 62 65 64 62
74 97 100 100 100 100 100 99 97 98 97 100 100 100 100 100 100 98 79 67 62 58 57 52 47 48 44 41 43 40 39 41 40 44 48 52 55 64 66 62 59 58 62
99 69 66 76 98 100 100 100 100 100 100 100 100 96 83 70 63 63 55 49 44 42 41 41 37 37 41 46 39 39 45 41 39 35 36 42 41 39 46 44 47 48 46
88 93 75 58 53 76 99 100 100 100 96 90 82 77 72 75 72 69 74 70 67 60 54 52 50 45 40 39 39 35 43 35 35 42 39 40 35 30 28 25 24 24 23
55 79 98 99 93 92 100 94 99 100 100 100 98 94 96 95 90 97 92 76 73 73 61 38 31 52 66 71 64 58 52 46 49 44 42 35 30 31 27 23 24 22 22
100 100 100 93 87 90 93 97 100 100 100 100 100 100 100 96 93 81 80 71 54 51 53 41 50 78 90 78 55 49 34 28 32 32 36 44 39 34 31 28 28 28 30
71 61 84 76 82 83 77 76 89 100 100 100 100 92 90 88 77 68 75 87 82 75 87 97 97 62 42 39 38 37 37 39 36 41 40 41 42 38 34 34 34 36 36
100 100 100 75 96 100 100 96 97 94 97 100 100 100 100 100 100 100 88 80 97 94 68 41 38 47 46 38 43 43 50 54 42 34 31 37 36 35 37 36 36 35 35
100 100 100 100 100 100 100 100 95 94 96 100 100 100 100 97 100 98 90 67 57 65 66 48 36 36 45 48 45 52 46 38 44 48 46 43 39 37 35 30 19 15 14

GFSSE_250_rhum_186.txt.gz
RH
91 43 40 35 28 28 32 38 58 75 85 79 69 69 63 53 47 43 36 29 26 27 29 38 40 31 27 28 40 72 76 83 83 73 66 68 70 66 69 70 53 54 52
82 88 36 38 30 30 31 41 43 41 44 60 55 60 61 56 47 38 32 24 20 18 22 39 43 43 39 37 40 40 37 71 92 91 83 84 90 82 75 72 62 55 38
45 51 51 46 46 38 36 47 48 90 99 51 38 40 47 51 49 48 31 24 21 24 35 45 52 52 51 47 48 52 55 38 55 83 74 80 80 58 46 54 61 45 33
33 46 49 82 81 56 55 53 61 100 99 61 59 55 41 30 25 27 30 25 22 21 40 67 73 74 63 59 53 54 42 42 43 50 52 46 41 37 32 42 57 49 53
33 47 57 78 87 95 91 98 83 87 80 70 48 17 14 15 14 15 17 22 21 21 39 60 68 87 82 72 63 53 50 51 60 67 70 66 55 44 54 47 33 39 65
52 55 47 59 89 95 84 91 70 44 49 41 17 19 21 19 17 20 18 20 23 26 45 72 71 99 95 84 69 65 71 80 78 93 100 88 58 50 45 44 40 50 50
54 56 56 77 88 91 89 70 90 79 37 19 26 37 37 34 23 21 24 31 35 35 38 38 50 63 67 67 83 92 92 100 100 100 100 96 79 64 54 59 55 49 74
89 58 68 88 100 84 54 59 52 34 21 26 25 38 37 47 43 65 71 93 86 63 54 65 76 98 100 100 99 99 100 100 100 99 93 91 72 54 51 48 44 45 54
93 70 90 95 100 73 49 38 21 20 23 36 24 31 49 60 44 53 76 99 100 100 100 100 100 100 100 100 100 100 100 100 100 100 100 90 66 56 50 43 37 36 34
92 100 100 100 100 63 52 52 48 38 27 36 31 23 37 46 48 52 53 69 93 98 76 82 100 100 100 100 100 100 100 100 100 100 91 67 48 42 38 27 24 21 20
100 100 100 100 100 73 47 53 58 43 33 41 64 34 31 51 30 44 42 51 44 62 87 97 100 94 100 100 100 100 100 100 97 77 56 42 36 32 28 26 28 29 28
100 100 100 100 99 69 58 67 51 39 38 48 76 66 54 42 50 45 71 79 98 100 100 100 100 100 100 100 100 100 94 85 66 41 31 29 28 28 26 26 26 22 24
100 100 100 100 100 97 83 60 42 44 43 77 83 100 99 71 59 69 70 92 100 100 100 100 100 100 100 100 96 81 61 55 40 28 29 31 30 29 34 33 32 25 23
88 100 100 97 92 100 100 78 45 36 47 50 53 58 99 100 100 90 69 69 94 100 100 100 100 91 83 75 76 76 71 70 53 35 30 33 38 38 38 36 32 30 27
39 70 96 100 98 100 100 100 90 65 54 65 68 81 85 99 100 100 100 100 100 88 91 99 97 100 100 96 100 86 80 76 68 49 45 42 42 45 44 44 43 41 40
39 42 51 100 100 93 94 99 100 100 100 100 100 100 100 97 95 94 100 99 85 77 76 63 53 50 60 60 51 42 41 44 46 46 51 64 72 71 69 62 54 52 55
51 34 47 64 100 100 96 88 100 100 100 100 100 100 100 100 100 100 100 100 97 87 87 86 85 74 68 68 60 56 58 62 75 86 92 92 85 78 76 72 63 64 59
74 50 40 47 78 100 100 100 93 90 89 88 88 89 79 76 62 64 68 59 64 86 79 72 95 100 100 100 94 76 72 65 51 43 38 32 30 36 35 36 40 36 42
93 83 81 75 69 71 96 100 100 93 74 68 65 71 77 70 64 76 82 100 97 98 91 98 97 97 84 67 50 36 29 28 32 34 36 33 30 30 31 37 42 48 46
100 100 90 76 78 78 75 96 100 100 100 100 100 100 100 100 100 100 100 100 100 100 100 89 73 61 49 41 39 33 37 36 27 30 35 39 46 58 67 70 66 62 55
100 91 100 82 71 76 81 100 100 100 100 100 100 100 100 100 100 100 100 100 100 97 87 82 71 59 57 52 43 44 32 26 28 35 35 47 56 78 96 78 49 44 41
100 98 76 76 83 97 84 75 84 88 94 99 98 98 99 100 100 100 100 98 100 100 89 79 90 88 75 59 49 40 39 43 51 60 70 92 94 65 43 36 37 37 33
94 100 100 97 92 85 63 64 69 74 82 89 88 86 85 78 74 71 78 83 79 76 72 74 88 91 73 37 32 30 40 57 82 92 64 44 48 36 34 34 42 38 35
86 81 80 100 100 100 99 90 80 69 64 63 78 84 88 82 80 80 92 97 99 96 95 74 62 61 56 52 75 92 77 74 62 55 58 48 36 37 34 32 31 31 29
76 90 93 67 86 100 100 100 100 100 80 70 64 68 80 87 92 93 95 87 86 82 78 85 73 67 78 93 77 79 70 65 47 39 44 41 35 34 34 30 31 36 39
94 94 85 95 82 69 79 100 100 100 100 100 100 100 100 95 91 95 98 96 94 92 86 92 92 90 92 77 77 58 46 39 42 38 35 32 36 38 44 46 46 43 41